sat.trackr.live / text

‹ back to catalog

STARLINK-4759

NORAD 53829 · 2022-114M

PAYLOAD ACTIVE UNKNOWN

§ Identity

Operator
Country
US
Launch date
2022-09-19
Launch site
AFETR
Launch vehicle
Mass (kg)
RCS (m²)

Purposes: comms

External: N2YO · Heavens-Above · Gunter

§ Orbital elements

Epoch: 2026-05-24T21:11:26.677824Z

Period
95.44 min
Inclination
53.2149°
Eccentricity
0.0001342
Mean motion
15.08844033 rev/d
Perigee alt
538.8 km
Apogee alt
540.7 km
Semi-major
6,917.9 km
B*
7.4545e-5
RAAN
322.0996°
Arg perigee
88.9070°
Mean anomaly
271.2076°
Rev number
20,433

§ Raw data

STARLINK-47591 53829U 22114M   26144.88294766  .00000899  00000+0  74545-4 0  99982 53829  53.2149 322.0996 0001342  88.9070 271.2076 15.08844033204339

JSON: /api/v1/satellites/53829 · /tle

For live sub-satellite position, see the globe view (requires WebGL).

§ Visibility from observer

Set your observer location to see the next 7 days of passes ≥ 10°. The values pass through the URL so the page stays shareable.

No JS? Fill the form by hand. The geolocation button needs JavaScript.